GW2231 Weather Reports


time (UTC)temp
F
wind
direction
speed
knots
gust
knots
rain 1hr
in
rain 24hr
in
rain mn
in
humidity
%
barometer
mb
20260906130502 72 349 0.9 2.6 0.00 0.00 0.00 92 1014.2
20260906130002 72 298 0.9 2.6 0.00 0.00 0.00 92 1014.0
20260906125458 72 28 0.0 0.9 0.00 0.00 0.00 92 1014.0
20260906123458 72 355 1.7 3.5 0.00 0.00 0.00 92 1013.9
20260906121959 72 280 1.7 3.5 0.00 0.00 0.00 92 1013.7
20260906120459 72 355 0.0 1.7 0.00 0.00 0.00 92 1013.4
20260906115500 73 348 0.9 2.6 0.00 0.00 0.00 91 1013.2
20260906113959 73 327 0.0 1.7 0.00 0.00 0.00 91 1013.2
20260906113500 73 327 0.0 1.7 0.00 0.00 0.00 91 1013.2
20260906113000 73 348 0.9 1.7 0.00 0.00 0.00 91 1013.1
20260906111959 73 15 0.9 2.6 0.00 0.00 0.00 90 1012.9
20260906110459 74 355 0.0 0.0 0.00 0.00 0.00 90 1012.7
20260906105459 74 9 0.0 0.0 0.00 0.00 0.00 90 1012.7
20260906104959 74 9 0.0 1.7 0.00 0.00 0.00 90 1012.6
20260906104459 74 9 0.0 2.6 0.00 0.00 0.00 90 1012.6
20260906103000 74 9 0.9 2.6 0.00 0.00 0.00 89 1012.5
20260906101958 75 350 1.7 1.7 0.00 0.00 0.00 89 1012.5
20260906101458 75 312 0.9 2.6 0.00 0.00 0.00 89 1012.5
20260906095500 76 11 0.0 4.3 0.00 0.00 0.00 88 1012.3
20260906093959 76 18 0.9 1.7 0.00 0.00 0.00 87 1012.1
20260906093500 76 345 0.9 2.6 0.00 0.00 0.00 87 1012.0
20260906090959 77 5 0.0 0.0 0.00 0.00 0.00 86 1012.1
20260906085458 77 5 0.0 0.0 0.00 0.00 0.00 85 1011.9
20260906081959 78 340 0.9 5.2 0.00 0.00 0.00 84 1012.0
20260906081459 78 341 0.0 2.6 0.00 0.00 0.00 84 1012.0
20260906080459 78 9 0.9 2.6 0.00 0.00 0.00 84 1012.0
20260906075000 79 360 0.0 1.7 0.00 0.00 0.00 85 1011.9
20260906074002 79 360 0.9 2.6 0.00 0.00 0.00 85 1011.7
20260906073502 79 18 0.9 2.6 0.00 0.00 0.00 86 1011.7
20260906072501 79 11 0.0 0.0 0.00 0.00 0.00 86 1011.8
20260906071500 80 334 0.0 0.9 0.00 0.00 0.00 85 1011.6
20260906070459 80 333 0.0 0.9 0.00 0.00 0.00 85 1011.7
20260906064959 80 334 0.0 0.0 0.00 0.00 0.00 85 1011.7
20260906063959 81 355 0.0 1.7 0.00 0.00 0.00 84 1011.8
20260906063459 81 59 0.0 1.7 0.00 0.00 0.00 85 1011.9
20260906062958 81 325 0.0 1.7 0.00 0.00 0.00 85 1011.9
20260906061959 81 63 0.0 1.7 0.00 0.00 0.00 84 1011.9
20260906061458 82 29 0.9 2.6 0.00 0.00 0.00 84 1011.9
20260906060458 82 344 0.0 1.7 0.00 0.00 0.00 83 1011.9
20260906060001 82 350 0.0 1.7 0.00 0.00 0.00 82 1011.9
20260906055500 82 49 0.9 1.7 0.00 0.00 0.00 82 1011.9
20260906052502 83 355 0.9 2.6 0.00 0.00 0.00 80 1011.9
20260906051500 84 5 0.0 0.0 0.00 0.00 0.00 79 1011.8
20260906050502 84 5 0.0 0.0 0.00 0.00 0.00 78 1011.7
20260906050001 84 5 0.0 0.0 0.00 0.00 0.00 78 1011.7
20260906045502 84 5 0.0 0.0 0.00 0.00 0.00 77 1011.7
20260906044501 84 5 0.0 0.0 0.00 0.00 0.00 77 1011.6
20260906044002 85 5 0.0 0.0 0.00 0.00 0.00 76 1011.6
20260906043002 85 5 0.0 0.9 0.00 0.00 0.00 76 1011.4
20260906042501 85 5 0.0 0.9 0.00 0.00 0.00 76 1011.3
20260906040501 85 11 0.0 0.0 0.00 0.00 0.00 75 1011.2
20260906035502 86 32 0.0 0.0 0.00 0.00 0.00 74 1011.1
20260906034000 86 313 0.0 0.0 0.00 0.00 0.00 72 1011.0
20260906033001 86 10 0.0 0.0 0.00 0.00 0.00 72 1010.9
20260906032500 87 10 0.0 2.6 0.00 0.00 0.00 71 1010.8
20260906030500 86 340 0.0 1.7 0.00 0.00 0.00 69 1010.7
20260906030001 86 355 0.0 1.7 0.00 0.00 0.00 69 1010.6
20260906025501 86 355 0.0 0.0 0.00 0.00 0.00 68 1010.6
20260906023000 87 355 0.0 1.7 0.00 0.00 0.00 65 1010.4
20260906022500 87 355 0.9 1.7 0.00 0.00 0.00 65 1010.4
20260906022000 87 355 0.9 1.7 0.00 0.00 0.00 65 1010.3
20260906021501 87 355 0.0 0.0 0.00 0.00 0.00 66 1010.2
20260906015502 87 15 0.0 0.0 0.00 0.00 0.00 66 1009.9
20260906015002 87 17 0.0 0.0 0.00 0.00 0.00 66 1009.8
20260906014500 87 315 0.0 0.0 0.00 0.00 0.00 65 1009.8
20260906014000 87 315 0.0 0.0 0.00 0.00 0.00 65 1009.7
20260906013003 87 315 0.0 0.0 0.00 0.00 0.00 65 1009.7
20260906012000 88 315 0.0 0.0 0.00 0.00 0.00 64 1009.6
20260906011502 88 315 0.0 0.0 0.00 0.00 0.00 64 1009.6
20260906011000 88 315 0.0 0.0 0.00 0.00 0.00 63 1009.6
20260906010500 88 315 0.0 0.0 0.00 0.00 0.00 63 1009.5
20260906010000 89 315 0.0 0.0 0.00 0.00 0.00 62 1009.5
20260906005501 89 315 0.0 0.0 0.00 0.00 0.00 63 1009.4
20260906005000 89 315 0.0 0.0 0.00 0.00 0.00 62 1009.3
20260906004500 90 315 0.0 0.0 0.00 0.00 0.00 61 1009.4
20260906004002 90 315 0.0 0.0 0.00 0.00 0.00 61 1009.4
20260906000502 92 9 0.0 1.7 0.00 0.00 0.00 59 1009.6
20260905235500 92 334 0.9 3.5 0.00 0.00 0.00 58 1009.7
20260905235000 93 25 0.9 3.5 0.00 0.00 0.00 57 1009.7
20260905234500 93 335 1.7 3.5 0.00 0.00 0.00 57 1009.6
20260905233502 94 14 1.7 3.5 0.00 0.00 0.00 56 1009.5
20260905232000 96 12 2.6 7.0 0.00 0.00 0.00 52 1009.6
20260905231501 97 5 1.7 4.3 0.00 0.00 0.00 51 1009.4
20260905230501 97 303 0.9 1.7 0.00 0.00 0.00 51 1009.4
20260905230001 97 9 0.9 1.7 0.00 0.00 0.00 51 1009.5
20260905223001 98 298 2.6 7.0 0.00 0.00 0.00 48 1009.3
20260905222000 99 10 1.7 4.3 0.00 0.00 0.00 47 1009.4
20260905221500 99 355 0.9 7.8 0.00 0.00 0.00 47 1009.4
20260905221002 99 248 1.7 7.0 0.00 0.00 0.00 49 1009.4
20260905215500 99 320 1.7 6.1 0.00 0.00 0.00 47 1009.3
20260905215002 99 258 2.6 6.1 0.00 0.00 0.00 47 1009.3
20260905214500 99 24 0.9 9.6 0.00 0.00 0.00 48 1009.3
20260905212501 100 360 1.7 8.7 0.00 0.00 0.00 44 1009.4
20260905211002 100 320 1.7 4.3 0.00 0.00 0.00 46 1009.2
20260905210502 100 317 0.9 5.2 0.00 0.00 0.00 47 1009.3
20260905210000 100 311 2.6 5.2 0.00 0.00 0.00 44 1009.4
20260905205459 100 333 0.9 5.2 0.00 0.00 0.00 46 1009.5
20260905204459 101 292 3.5 6.1 0.00 0.00 0.00 45 1009.7
20260905203959 100 331 1.7 7.8 0.00 0.00 0.00 45 1009.7
20260905203000 100 322 2.6 5.2 0.00 0.00 0.00 43 1009.7
20260905202459 101 269 3.5 5.2 0.00 0.00 0.00 46 1009.7
20260905201959 100 15 0.0 6.1 0.00 0.00 0.00 47 1009.6
20260905201459 100 330 0.0 6.1 0.00 0.00 0.00 46 1009.8
20260905193500 100 274 3.5 8.7 0.00 0.00 0.00 45 1010.4
20260905193003 100 227 2.6 7.8 0.00 0.00 0.00 44 1010.5
20260905192502 100 294 3.5 7.0 0.00 0.00 0.00 46 1010.5
20260905192001 100 233 1.7 8.7 0.00 0.00 0.00 46 1010.5
20260905191459 99 279 5.2 8.7 0.00 0.00 0.00 46 1010.6
20260905191002 99 16 0.9 7.0 0.00 0.00 0.00 47 1010.7
20260905190500 99 5 2.6 7.0 0.00 0.00 0.00 47 1010.6
20260905185000 100 355 3.5 6.1 0.00 0.00 0.00 48 1010.9
20260905184500 100 341 1.7 5.2 0.00 0.00 0.00 48 1010.9
20260905183501 99 320 1.7 5.2 0.00 0.00 0.00 48 1011.0
20260905182459 99 338 0.9 3.5 0.00 0.00 0.00 49 1011.1
20260905182002 100 350 1.7 6.1 0.00 0.00 0.00 49 1011.2
20260905181502 100 342 2.6 8.7 0.00 0.00 0.00 49 1011.2
20260905181000 101 330 2.6 8.7 0.00 0.00 0.00 48 1011.2
20260905180003 101 185 1.7 5.2 0.00 0.00 0.00 50 1011.2
20260905174002 99 212 0.0 1.7 0.00 0.00 0.00 53 1011.4
20260905173502 99 78 0.0 2.6 0.00 0.00 0.00 55 1011.4
20260905173000 98 249 0.9 5.2 0.00 0.00 0.00 53 1011.5
20260905172502 98 337 1.7 6.1 0.00 0.00 0.00 52 1011.5
20260905171502 98 19 0.9 2.6 0.00 0.00 0.00 54 1011.7
20260905170003 96 196 0.9 5.2 0.00 0.00 0.00 57 1012.0
20260905165002 95 341 2.6 5.2 0.00 0.00 0.00 56 1012.0
20260905163501 94 166 2.6 5.2 0.00 0.00 0.00 60 1012.3
20260905163000 94 209 2.6 6.1 0.00 0.00 0.00 59 1012.3
20260905162502 94 127 1.7 4.3 0.00 0.00 0.00 59 1012.4
20260905161502 93 254 1.7 6.1 0.00 0.00 0.00 61 1012.3
20260905160501 93 231 2.6 7.0 0.00 0.00 0.00 62 1012.3
20260905160001 92 322 2.6 4.3 0.00 0.00 0.00 61 1012.3
20260905155500 92 288 0.9 5.2 0.00 0.00 0.00 62 1012.4
20260905155000 91 254 1.7 5.2 0.00 0.00 0.00 64 1012.5
20260905154459 91 249 0.9 4.3 0.00 0.00 0.00 64 1012.5
20260905153459 91 220 1.7 4.3 0.00 0.00 0.00 63 1012.4
20260905152459 90 304 2.6 8.7 0.00 0.00 0.00 65 1012.5
20260905152000 90 232 1.7 7.8 0.00 0.00 0.00 65 1012.4
20260905151500 90 211 3.5 7.8 0.00 0.00 0.00 65 1012.4
20260905151001 89 205 0.9 3.5 0.00 0.00 0.00 67 1012.5
20260905150000 89 301 2.6 5.2 0.00 0.00 0.00 66 1012.4
20260905144459 89 307 2.6 7.0 0.00 0.00 0.00 65 1012.3
20260905144000 89 277 1.7 6.1 0.00 0.00 0.00 66 1012.4
20260905143500 88 321 1.7 7.0 0.00 0.00 0.00 68 1012.2
20260905142000 87 244 3.5 6.1 0.00 0.00 0.00 70 1012.3
20260905141501 86 279 0.9 4.3 0.00 0.00 0.00 72 1012.3
20260905135503 83 205 0.9 3.5 0.00 0.00 0.00 78 1012.3
20260905134002 81 185 0.0 0.0 0.00 0.00 0.00 85 1012.2
20260905133003 80 185 0.0 1.7 0.00 0.00 0.00 87 1012.1
20260905132500 79 185 0.0 2.6 0.00 0.00 0.00 86 1012.1